Zurück zum Katalog

ATLAS 5 CENTAUR DEB

LostHEO
NORAD 47342·DEBRIS·🇺🇸 United States

Gestartet Oct 17, 2018 von Cape Canaveral Space Force Station

Loading…

Nächste Überflüge (nächste 24 Stunden)

TLE

VeraltetSource: Space-Track

Epoche: Apr 8, 2024, 21:36 UTC

1 47342U 18079EP  24099.90059332 -.00000085  00000-0  00000+0 0  9993
2 47342  12.7788  80.1270 4920932 255.9338  46.6164  1.98856627 23843

Verfolge ATLAS 5 CENTAUR DEB in Echtzeit mit AllMySat

Download on the App Store